GFSSE_850_thetae_000.txt.gz
Theta_e
328 325 321 322 323 322 319 316 316 317 317 315 314 313 311 310 310 309 309 309 310 311 311 310 310 307 307 307 308 309 313 325 336 341 343 342 341 342 341 343 343 340 337
330 331 327 324 323 321 318 317 318 318 316 315 315 314 312 310 309 309 316 317 316 315 315 314 313 310 308 307 308 308 311 313 325 336 341 343 342 341 341 342 343 342 338
331 330 329 325 323 320 320 320 320 318 318 317 317 316 312 309 308 312 316 314 314 318 321 320 318 316 312 309 310 310 310 311 313 323 334 340 342 342 341 343 341 342 340
330 330 328 326 324 323 322 322 321 319 319 320 320 319 315 313 313 316 316 315 314 318 325 326 324 321 318 314 312 316 313 312 312 312 320 331 338 340 342 343 343 342 341
330 329 327 326 325 324 323 323 321 319 319 320 321 320 317 317 324 324 321 320 319 323 328 328 327 325 323 320 317 314 312 313 313 313 312 318 330 336 340 343 344 345 343
327 325 323 325 324 324 323 322 318 318 317 316 317 318 320 324 325 327 325 321 322 324 327 329 328 329 328 325 326 324 319 314 319 315 313 313 322 331 336 341 343 343 343
322 322 321 324 325 323 322 319 318 317 317 315 313 315 322 325 323 325 323 325 325 323 327 328 328 327 327 328 326 329 327 321 326 323 315 315 315 325 334 339 341 341 342
320 320 321 324 325 324 321 319 320 319 319 316 315 317 320 319 320 322 323 324 323 324 323 326 326 326 323 326 326 324 326 324 326 324 318 318 313 322 330 336 340 340 341
321 321 322 324 325 324 320 320 321 321 321 317 317 321 323 324 324 323 323 322 323 323 324 324 325 325 324 324 324 324 325 323 327 323 319 318 313 320 327 333 338 339 339
323 323 323 323 325 323 320 321 322 322 321 318 318 322 324 325 323 321 320 318 318 319 323 325 323 322 323 323 324 323 325 325 323 324 320 318 317 318 325 332 336 337 339
324 324 325 324 325 322 321 322 322 322 319 318 320 323 325 323 322 318 317 317 317 317 318 320 319 316 318 321 323 323 324 325 318 317 323 319 317 317 326 333 335 337 339
324 324 325 325 324 321 322 322 322 321 318 319 322 324 324 323 323 321 321 319 319 323 323 323 325 321 322 321 321 322 324 324 318 314 321 321 317 321 329 334 335 337 338
324 324 323 325 323 322 322 322 322 319 318 323 324 324 324 325 324 323 322 320 321 321 323 324 324 325 324 323 320 321 324 325 319 312 314 321 319 322 330 334 337 337 338
325 323 323 324 323 323 323 323 321 317 322 325 325 325 325 325 324 323 323 319 322 323 323 322 321 322 323 322 322 321 323 324 317 309 314 322 321 321 330 333 337 339 339
325 324 323 324 324 324 323 322 318 318 324 327 326 326 325 325 324 324 325 322 319 322 323 322 322 321 323 323 323 324 324 324 316 310 321 324 322 321 330 335 338 339 340
325 324 324 324 324 325 323 321 316 322 327 327 328 328 328 326 325 325 324 325 321 320 321 321 320 321 322 322 322 322 322 314 311 312 325 324 321 323 331 335 337 339 340
325 324 324 323 325 324 322 317 318 325 327 327 327 328 329 327 325 326 325 325 326 321 321 321 320 321 322 322 322 322 317 316 314 322 327 324 320 325 329 333 338 339 339
325 324 323 323 324 322 320 316 322 325 325 328 327 327 328 328 326 326 326 325 325 322 322 322 320 320 322 322 322 320 319 316 320 327 326 325 324 327 328 330 336 337 336
325 324 323 323 323 322 318 318 324 325 326 328 327 327 327 327 327 326 325 323 323 321 322 322 320 320 322 322 322 319 320 318 326 327 327 327 328 327 327 330 332 334 335
325 324 323 323 323 321 317 320 324 324 326 327 326 327 327 326 326 325 324 323 321 321 322 321 320 320 322 322 322 321 321 319 327 326 326 327 327 327 327 329 330 333 335
324 323 323 323 322 318 317 322 323 323 325 325 327 326 327 327 328 327 324 322 320 322 322 321 321 320 322 322 322 321 322 323 325 325 325 327 328 327 327 330 330 333 335
323 323 323 323 321 318 320 321 321 324 325 326 327 326 327 326 326 326 324 321 322 321 321 321 320 320 321 322 323 323 323 323 323 324 326 327 328 326 328 330 332 334 335
322 323 323 323 319 319 321 320 322 325 327 326 325 326 326 326 323 323 324 322 321 320 321 320 319 320 321 322 322 322 323 323 324 325 327 326 326 327 330 332 333 335 334
322 323 324 321 320 321 320 321 325 326 325 324 323 325 326 323 322 323 323 321 320 320 321 320 320 320 321 323 323 323 323 326 326 327 326 327 328 330 331 333 334 333 331
323 324 322 321 322 320 321 325 328 327 326 323 323 324 325 324 322 322 321 320 320 321 321 320 320 320 321 323 322 324 326 326 327 326 329 329 329 331 330 332 331 328 332
324 323 323 323 321 321 323 326 329 328 326 323 322 323 324 325 322 321 320 321 321 322 321 322 322 322 323 323 323 323 325 324 326 327 328 330 330 332 332 332 332 331 331

GFSSE_850_thetae_003.txt.gz
Theta_e
331 324 329 325 321 321 322 320 316 316 318 316 315 314 313 312 310 310 309 308 308 309 310 311 312 311 308 307 307 307 308 315 329 339 343 342 341 342 341 342 343 341 339
332 330 330 327 323 322 321 319 318 320 319 317 316 315 314 313 310 309 309 311 315 314 314 315 315 316 313 309 307 307 308 310 316 329 338 342 342 341 341 340 341 343 340
331 330 328 327 324 323 320 320 320 320 319 317 317 316 315 312 309 309 311 316 314 313 317 321 321 320 318 315 310 307 308 309 311 314 327 335 340 341 340 340 341 342 342
329 326 327 326 325 323 321 322 321 321 318 317 318 318 318 315 311 314 317 316 314 313 313 322 326 325 323 322 321 313 311 311 310 311 314 322 332 339 340 340 341 341 342
328 326 325 325 325 324 323 322 321 319 317 317 318 318 320 318 316 321 326 324 321 318 315 325 328 328 327 326 325 326 315 313 312 311 317 313 319 331 337 340 341 343 342
327 327 325 325 324 323 323 322 320 317 317 316 316 316 317 317 324 328 327 330 325 322 322 326 326 327 330 329 327 329 329 319 313 328 317 313 313 322 331 336 342 343 344
326 325 324 324 324 324 323 323 321 318 318 317 316 315 315 323 328 328 327 327 325 328 328 326 320 326 326 326 329 327 329 331 326 331 325 315 313 315 325 332 338 342 342
324 322 322 322 324 324 323 322 321 319 319 320 318 317 319 326 326 324 325 326 327 328 327 327 327 324 326 325 323 328 326 329 329 331 328 320 315 314 321 328 335 341 340
323 321 321 322 324 325 324 322 320 320 320 321 319 318 325 323 324 324 325 324 323 324 325 327 327 324 325 326 324 324 325 325 328 330 331 325 318 315 318 325 333 340 341
322 321 320 321 323 325 325 323 320 321 321 322 319 319 320 322 323 323 321 320 320 319 319 321 322 324 325 324 324 324 324 324 328 329 330 329 318 318 316 325 330 336 339
323 322 322 322 323 325 325 323 321 322 322 322 320 320 321 322 323 322 320 317 317 318 318 319 320 323 323 325 324 324 323 328 330 329 328 324 319 320 317 323 329 333 337
324 321 322 322 323 324 325 323 322 322 322 321 318 321 323 323 323 323 320 321 320 318 323 324 327 326 326 327 327 324 327 329 329 328 326 318 323 320 315 323 329 333 335
326 322 322 322 324 325 326 323 323 323 322 318 319 324 324 324 325 325 322 322 319 320 322 324 325 325 325 328 328 327 327 328 329 327 323 315 323 321 316 324 331 333 335
326 324 323 322 324 326 327 323 323 323 322 317 321 325 325 325 325 325 323 324 319 321 323 322 323 322 323 324 326 327 326 327 328 326 318 313 319 323 318 327 332 335 335
327 325 323 323 323 325 327 323 323 323 319 319 324 326 326 326 325 325 325 325 323 320 321 323 323 322 321 323 323 325 326 325 325 324 318 310 318 324 319 328 334 336 337
325 326 324 324 324 326 327 324 324 322 318 324 327 327 328 328 326 326 326 325 325 324 321 320 322 320 322 322 323 323 325 324 323 322 317 316 324 325 320 328 334 337 339
325 326 326 324 324 326 326 325 323 319 321 325 326 327 328 329 329 328 327 326 326 326 324 322 321 320 321 322 323 324 323 323 318 313 312 322 327 324 321 329 333 334 337
324 325 325 325 324 325 326 325 322 317 323 325 327 327 328 328 329 329 327 327 327 327 326 322 322 320 320 322 322 322 321 320 317 314 321 327 326 323 323 327 330 335 335
324 324 324 324 324 324 327 323 319 319 323 326 327 328 327 328 328 328 327 327 326 326 324 322 323 321 321 323 322 322 323 321 319 317 325 327 326 323 325 327 329 334 333
325 324 323 324 323 325 324 321 317 322 324 326 328 327 327 328 328 327 327 326 324 324 322 322 323 321 321 322 322 322 321 320 318 323 326 326 325 327 327 327 329 333 333
325 324 324 323 324 324 323 320 318 322 325 327 327 328 327 328 327 328 328 326 323 322 322 322 322 321 321 322 322 322 321 321 319 324 325 325 325 327 327 327 328 331 333
324 324 323 323 323 323 322 318 321 325 326 326 328 327 327 327 327 326 327 325 321 321 322 322 321 321 320 322 324 325 325 323 321 323 324 325 326 328 327 327 330 331 334
322 323 323 323 324 323 319 321 323 325 327 325 324 325 327 327 325 323 324 323 322 321 321 321 320 320 322 321 322 324 325 324 325 324 325 325 327 327 327 331 331 333 335
321 322 323 324 323 320 319 322 324 327 326 323 322 323 325 325 323 323 324 322 321 320 320 319 318 320 320 321 321 321 321 323 325 328 326 327 327 329 330 333 333 334 331
321 323 324 324 320 320 321 324 327 326 326 324 321 323 324 325 322 321 321 320 319 320 320 319 319 319 320 322 321 321 322 324 323 326 329 329 329 331 333 333 333 332 334
323 323 324 321 321 322 323 325 329 328 326 324 322 322 324 325 322 320 319 320 321 320 321 321 320 320 321 322 322 321 324 327 329 326 329 329 330 332 331 333 331 332 332

GFSSE_850_thetae_006.txt.gz
Theta_e
332 332 328 328 322 321 321 321 320 316 318 317 316 315 314 313 312 311 310 309 308 308 309 310 311 311 310 308 307 307 308 308 322 339 343 343 342 342 340 341 342 343 344
332 332 330 328 324 322 321 321 319 318 319 317 316 315 315 314 313 311 310 309 309 312 313 314 315 316 315 312 309 307 307 308 309 324 337 342 343 341 342 341 342 345 343
332 332 331 327 323 321 321 320 319 319 318 316 316 316 314 314 312 309 309 309 316 316 314 317 321 323 321 318 313 310 308 309 309 311 320 336 344 342 341 341 340 343 343
330 331 328 325 323 321 320 320 320 319 318 316 316 315 315 314 313 311 312 316 315 315 313 314 322 326 327 326 322 316 311 310 308 309 316 328 337 340 340 340 340 341 343
328 327 326 325 322 323 321 320 320 320 318 316 316 316 316 315 315 316 320 323 324 321 319 316 326 329 327 328 327 325 321 314 311 312 324 329 332 336 336 340 340 341 341
327 325 326 324 323 323 322 320 320 319 317 316 316 316 316 316 316 323 326 327 327 330 324 322 321 331 331 331 331 330 328 326 316 327 329 330 327 332 330 336 340 342 342
327 325 325 324 322 323 322 322 321 319 319 319 317 317 316 317 323 331 330 329 328 328 327 330 329 325 321 325 329 330 330 329 331 330 330 331 329 325 320 329 336 342 343
333 326 326 323 322 323 323 322 322 321 320 319 320 317 317 321 332 331 328 327 327 328 330 330 329 329 326 325 325 324 329 329 333 333 334 331 330 322 314 324 334 339 341
333 332 326 323 322 324 324 324 323 322 321 320 321 319 317 327 328 323 323 324 324 324 324 324 327 327 328 326 325 325 323 327 330 334 335 336 332 318 313 319 332 338 340
335 333 333 326 323 323 324 325 324 323 321 320 322 321 318 320 322 323 323 323 321 320 320 320 322 326 327 325 324 325 325 324 329 330 333 333 333 323 315 315 327 336 339
334 335 333 335 337 328 335 331 325 324 322 321 322 321 319 325 331 331 329 322 320 317 317 318 319 320 320 321 323 324 324 329 329 328 331 332 330 320 318 314 324 332 337
334 334 334 337 337 337 335 338 328 327 326 329 332 332 324 331 332 328 325 321 319 321 319 322 325 326 328 329 328 325 327 328 329 329 329 331 327 322 320 315 320 330 334
333 334 335 336 333 337 336 338 338 335 335 335 332 326 329 332 332 331 331 330 330 329 327 327 329 329 329 328 330 327 327 327 327 328 328 329 324 322 321 317 319 328 333
331 333 335 335 324 325 336 337 336 335 335 334 333 322 325 332 333 332 331 330 331 329 328 328 329 330 329 329 330 329 327 327 328 328 329 327 319 319 323 316 317 328 332
331 332 335 336 327 324 329 338 335 334 333 332 330 330 328 332 333 333 332 332 331 331 328 328 329 329 329 330 329 329 329 327 327 329 329 327 315 315 323 317 320 330 333
328 332 335 337 332 324 326 332 328 328 331 326 329 331 329 329 332 333 332 331 329 330 330 329 328 329 327 328 329 330 329 328 327 328 329 327 317 312 321 320 322 330 334
330 332 335 337 332 324 325 327 328 328 326 329 330 329 326 328 332 331 329 328 327 327 328 326 327 327 327 327 328 328 329 329 329 330 328 326 327 322 323 321 324 332 334
325 330 332 334 332 327 325 327 330 330 328 330 331 332 332 330 330 329 328 329 328 327 327 327 328 327 327 326 327 328 328 328 328 327 326 326 327 330 329 321 325 331 333
326 325 325 325 328 327 326 328 330 327 327 330 331 331 333 332 331 329 328 328 327 327 326 327 327 327 327 327 327 328 327 326 327 326 326 328 328 330 329 328 324 329 334
325 325 324 324 324 326 330 331 332 331 330 331 331 332 333 333 331 328 327 327 327 326 325 327 326 326 327 327 327 327 327 327 326 327 327 327 330 331 331 331 331 333 334
326 324 324 323 323 324 328 332 331 330 330 330 331 333 332 333 329 328 328 328 327 325 324 323 324 325 326 326 327 327 327 327 327 326 326 329 330 330 328 332 335 335 333
325 324 324 324 323 326 332 329 330 330 330 330 332 333 332 331 329 328 327 326 326 325 324 324 324 325 325 325 325 327 326 327 326 326 328 329 330 330 331 333 334 335 334
325 325 327 333 330 332 330 330 330 328 329 330 331 331 332 330 329 327 326 325 325 323 322 322 322 324 325 326 324 327 326 325 325 326 329 330 330 329 332 326 332 333 333
327 326 333 331 331 326 324 330 329 328 329 330 329 330 330 329 329 328 326 326 323 323 323 323 324 324 324 325 325 325 328 326 325 326 326 331 331 331 329 330 332 333 333
331 333 333 330 325 324 328 330 327 330 330 330 329 328 330 328 326 327 326 326 326 326 324 325 325 325 326 325 326 326 326 327 328 325 329 330 329 330 331 333 333 334 335
332 333 332 329 330 328 326 330 331 332 331 329 329 329 330 327 327 327 326 326 326 325 326 325 325 325 325 325 326 327 327 329 326 329 330 332 332 331 333 333 335 332 332

GFSSE_850_thetae_009.txt.gz
Theta_e
338 333 327 327 322 322 321 321 321 319 316 318 316 315 315 314 313 312 311 310 309 309 309 310 310 310 311 310 309 308 307 308 309 319 340 343 342 343 341 341 342 344 345
337 333 330 328 323 321 321 320 320 318 318 317 315 315 315 315 314 313 311 310 309 309 312 315 316 316 315 314 311 309 307 307 308 308 323 340 343 342 342 341 342 346 346
337 331 330 328 323 321 320 320 320 318 318 316 315 315 314 314 314 313 310 309 309 314 316 314 316 321 322 320 317 313 310 308 308 308 308 325 342 343 342 342 341 343 345
336 330 330 328 323 321 321 320 319 318 317 316 315 315 315 314 314 314 313 312 315 316 315 314 313 326 331 328 324 321 316 313 308 308 311 319 329 340 339 341 340 341 343
335 329 329 326 322 321 321 320 319 318 317 316 316 316 316 316 315 315 317 319 321 323 321 321 318 325 330 331 331 327 323 320 314 309 326 323 328 335 337 337 340 340 341
334 328 326 326 322 321 321 320 319 319 318 317 316 316 316 316 316 316 323 326 327 326 329 331 327 321 331 332 332 332 329 328 324 328 327 328 331 333 335 334 339 342 341
336 337 331 325 324 322 322 321 320 320 319 319 320 318 317 316 317 324 332 330 330 329 328 328 330 330 330 325 322 328 331 331 331 334 329 331 332 329 327 330 335 340 342
336 336 337 324 324 323 323 322 321 321 321 320 320 321 318 317 320 332 332 332 329 327 328 329 332 332 332 329 322 323 324 328 333 335 335 335 332 330 328 321 331 338 341
335 335 336 329 323 323 323 323 322 322 321 321 320 320 321 317 318 329 325 323 323 324 324 324 324 324 329 329 328 325 324 323 326 333 334 334 335 333 327 314 327 335 338
335 335 336 339 328 323 323 323 323 323 323 322 321 320 322 319 320 324 327 326 326 324 321 319 319 320 322 325 327 327 323 324 323 331 333 334 333 335 332 313 322 333 337
333 335 335 335 340 334 334 329 324 324 324 323 322 321 322 324 333 333 335 332 329 323 318 318 317 318 318 319 320 320 321 327 329 330 329 332 332 332 332 316 317 329 335
333 334 335 336 338 342 337 337 335 325 324 324 323 328 332 333 334 334 333 331 329 322 321 321 320 323 324 330 330 329 326 328 328 328 330 331 328 331 329 318 314 327 331
331 333 335 336 336 340 339 337 343 342 339 336 336 336 336 334 334 335 334 334 332 333 331 330 330 330 330 330 330 332 332 329 328 330 330 330 330 329 327 320 318 319 331
332 332 335 337 338 338 338 336 339 341 339 338 338 339 336 334 335 335 333 333 332 332 332 330 329 328 329 329 329 330 331 329 328 328 330 330 329 328 324 322 320 315 327
333 332 333 337 337 339 335 337 339 339 337 338 337 336 335 334 335 334 334 333 332 332 332 330 329 329 329 328 328 329 327 326 329 329 329 328 330 326 320 321 322 315 323
332 333 333 336 338 337 340 337 338 338 337 337 335 333 335 335 335 334 334 333 333 332 332 332 330 329 329 329 328 328 328 327 327 329 327 327 329 325 315 317 322 315 323
331 333 334 335 338 337 337 335 340 338 336 336 334 333 335 336 335 334 334 334 330 330 328 328 329 330 330 329 327 328 328 328 328 327 325 327 330 327 312 313 322 317 325
331 333 335 337 339 338 339 340 340 338 337 333 333 334 336 336 335 335 334 331 329 329 329 328 328 330 330 327 327 327 329 328 329 327 328 328 327 330 331 318 321 320 328
329 330 336 337 339 341 342 343 341 338 336 333 333 334 334 335 335 334 336 332 329 329 329 328 326 327 329 329 327 329 329 329 328 327 327 327 327 329 329 332 323 320 330
330 334 337 337 339 341 345 344 341 337 335 333 334 333 333 335 333 334 335 330 329 329 328 326 326 327 328 327 328 328 328 329 327 327 327 326 328 329 330 331 329 320 328
334 336 339 337 337 343 345 343 339 336 335 334 333 333 335 335 333 334 332 330 329 329 328 327 325 325 325 327 328 327 326 328 328 327 325 328 328 328 331 332 334 333 329
336 338 338 335 335 341 344 340 336 334 334 333 333 334 335 334 334 333 333 329 328 327 327 328 325 324 323 326 326 328 328 327 327 327 327 326 330 329 331 332 331 336 331
337 338 338 339 341 343 340 336 334 334 334 334 332 333 334 333 333 333 331 330 328 327 328 326 325 326 325 324 324 327 328 326 326 326 326 330 330 331 331 332 335 334 333
338 339 340 341 343 339 334 334 334 334 331 331 333 331 332 332 331 330 328 328 327 328 326 324 325 324 325 326 324 324 327 327 327 328 329 327 329 330 330 330 332 333 333
338 339 342 342 338 335 335 334 333 331 332 332 330 331 331 331 329 329 327 328 328 326 324 323 324 324 324 324 325 326 327 329 326 328 328 330 330 330 331 331 331 332 333
338 340 340 338 337 336 335 334 332 333 332 330 331 331 331 330 329 328 329 328 328 328 327 327 328 325 325 326 327 328 327 328 327 326 328 330 330 331 331 331 332 332 334

GFSSE_850_thetae_015.txt.gz
Theta_e
337 330 329 327 324 321 319 318 317 316 315 314 314 313 313 313 312 312 312 311 311 310 309 309 309 308 309 309 309 309 309 308 308 311 319 340 343 342 342 340 340 342 335
328 329 329 328 324 320 320 319 318 316 316 315 314 314 314 314 313 313 312 310 309 308 308 311 313 314 314 313 312 311 311 309 308 308 309 323 341 342 341 341 340 342 344
329 328 329 329 324 319 320 320 318 317 317 317 316 316 315 315 315 314 314 313 310 309 311 313 313 313 314 317 318 318 316 313 310 308 308 308 327 340 340 340 341 341 345
330 328 330 329 323 319 320 320 318 317 318 318 318 317 316 316 316 316 316 317 315 313 313 315 315 313 315 320 322 323 321 319 316 311 307 307 317 331 334 338 338 340 342
333 331 329 327 323 319 320 320 318 318 318 318 318 318 317 316 316 316 317 319 323 323 322 323 322 320 319 329 329 330 327 324 321 318 309 308 315 321 332 337 336 338 340
333 333 330 328 323 320 320 320 319 318 318 319 319 319 318 317 317 316 319 323 328 329 329 327 331 333 332 323 330 331 331 330 326 323 314 320 326 333 335 336 335 336 340
335 333 329 329 325 320 320 320 319 318 319 319 320 321 321 319 318 317 318 324 327 329 331 331 331 330 329 330 325 328 329 328 331 327 321 327 329 330 331 332 333 334 337
337 336 335 328 328 321 320 321 320 319 319 320 321 321 321 322 321 318 317 319 325 325 324 324 323 323 327 330 332 331 329 320 322 329 327 332 333 332 329 327 328 330 333
337 336 336 333 327 324 321 321 320 320 320 320 321 321 322 322 322 322 319 324 329 328 327 326 323 322 322 323 324 329 331 329 322 320 329 334 332 332 331 331 328 323 327
335 336 336 336 334 326 323 321 321 321 320 320 321 321 322 322 322 322 321 324 329 329 329 329 325 319 317 317 319 323 324 328 326 324 320 332 332 332 333 331 331 322 318
331 335 336 336 335 333 324 321 321 321 321 321 321 321 322 322 322 322 322 323 328 330 331 331 329 322 320 317 317 318 321 321 322 325 322 323 331 332 332 332 333 328 315
330 332 335 336 336 335 333 328 322 321 322 321 321 322 322 322 322 323 323 325 330 332 332 331 330 328 329 323 320 325 328 327 325 319 317 322 329 332 331 330 331 331 313
330 330 333 336 336 336 336 335 331 323 321 322 322 322 323 323 323 325 323 327 332 334 333 332 330 330 330 328 330 329 330 330 330 327 320 329 330 330 330 331 329 330 322
330 330 329 335 336 336 336 335 335 333 326 321 322 323 323 323 324 326 324 328 333 333 333 332 330 331 330 329 328 329 329 329 331 330 327 328 330 331 331 331 329 328 326
330 330 328 330 335 336 336 336 335 335 333 329 332 333 328 324 327 329 327 332 334 333 333 332 332 331 330 330 330 328 328 328 330 331 328 329 330 329 329 329 329 328 325
330 329 329 330 333 335 336 336 335 336 335 334 337 337 331 335 336 331 331 334 336 335 333 333 332 332 331 329 329 329 327 327 328 331 328 329 329 329 328 328 327 324 323
330 329 328 329 333 335 336 336 336 337 336 336 339 339 337 338 337 333 332 334 334 333 332 333 330 331 331 331 329 328 328 327 328 328 328 329 329 328 326 326 324 322 318
330 328 328 328 330 333 336 336 337 338 337 338 341 339 338 337 335 332 332 331 332 333 333 333 329 329 329 329 328 328 328 326 327 327 326 328 328 326 325 327 328 313 316
329 328 328 328 328 331 335 337 339 339 339 341 340 339 337 335 333 334 334 332 333 332 333 333 329 329 329 329 328 328 329 327 327 326 327 327 326 325 328 328 330 319 316
329 328 327 329 328 329 333 338 339 338 340 340 339 337 335 333 334 334 333 334 333 332 333 331 330 329 329 329 327 327 327 327 328 328 326 327 325 326 327 326 328 327 319
329 327 327 329 328 330 333 339 341 339 340 341 339 335 333 335 334 335 335 334 332 331 331 330 330 330 328 327 328 328 328 327 328 327 328 326 326 326 325 326 327 330 327
328 328 327 331 329 331 334 339 341 341 341 341 338 334 334 334 334 334 333 332 333 330 329 328 328 327 327 326 327 327 327 327 326 327 326 326 326 325 326 324 326 329 330
327 329 330 332 333 335 337 344 344 343 342 341 337 334 334 334 334 334 333 331 329 329 327 327 327 326 325 324 324 325 325 324 324 324 327 326 326 326 326 328 328 329 330
329 331 333 335 337 341 345 345 343 343 341 336 335 334 334 334 334 333 333 328 327 326 326 326 324 323 324 323 324 323 324 324 327 324 326 326 325 326 326 327 327 329 330
332 335 337 339 344 346 345 342 342 341 337 336 335 334 334 335 333 330 327 326 325 324 324 323 323 323 323 323 323 323 323 323 325 327 326 325 326 327 326 327 327 328 329
337 337 337 338 342 344 343 342 340 336 335 335 334 331 330 330 331 329 327 326 326 326 324 325 325 325 324 322 322 323 323 322 324 326 327 325 324 324 325 325 327 327 329

GFSSE_850_thetae_021.txt.gz
Theta_e
330 325 320 321 321 319 318 319 320 320 319 319 318 317 316 315 314 312 312 311 311 311 311 310 309 309 308 308 308 308 308 310 315 316 318 339 343 343 344 343 341 339 335
331 326 322 322 322 320 319 319 321 320 320 320 319 318 318 316 315 314 314 314 312 310 309 309 309 309 309 309 309 309 309 308 308 308 310 318 341 342 341 341 341 339 334
330 327 323 323 323 320 319 320 321 320 320 320 319 319 319 318 316 315 315 317 318 316 312 310 311 311 311 312 312 314 313 312 310 308 307 309 329 341 340 341 340 341 336
328 327 327 325 324 322 319 320 321 320 320 320 320 320 319 319 318 316 316 317 319 320 321 318 315 315 313 312 313 314 315 316 315 312 308 307 312 339 340 340 340 340 342
330 328 327 327 327 324 320 321 321 321 320 320 320 320 320 320 320 319 317 317 318 320 322 322 323 323 317 318 323 325 326 321 319 318 313 307 307 330 337 338 339 340 341
331 329 327 327 328 325 320 321 322 321 321 320 320 320 321 321 321 321 320 318 318 320 322 323 324 325 326 327 328 326 331 330 327 323 318 308 307 319 332 330 335 335 338
331 331 330 328 328 326 321 320 321 321 321 321 321 321 321 322 322 322 321 320 319 320 322 323 326 328 329 330 329 330 326 328 329 329 321 312 313 319 323 323 332 333 334
331 331 332 330 328 327 323 320 321 321 320 320 321 321 321 322 322 322 322 321 320 321 322 323 323 323 323 323 325 327 329 327 327 324 326 318 322 323 327 331 332 332 333
332 333 333 332 329 328 326 320 320 321 320 320 320 321 321 322 322 322 322 322 321 321 322 323 326 326 324 323 322 322 324 328 331 326 326 325 327 325 327 329 328 328 329
332 332 334 333 332 329 327 323 320 321 320 320 320 320 321 322 322 322 322 322 321 322 323 325 327 328 324 320 318 317 318 321 327 331 323 326 329 330 327 329 329 326 325
333 334 335 336 335 333 329 327 321 320 320 320 319 319 320 321 322 322 322 322 322 324 325 326 328 328 327 325 323 319 316 317 320 323 327 323 327 332 331 332 331 330 329
332 332 334 336 335 335 333 329 324 321 320 320 319 319 320 320 321 321 321 321 323 325 326 329 330 329 328 328 327 322 317 316 317 318 320 325 323 327 332 331 331 331 330
330 330 331 333 334 335 335 333 329 323 321 320 320 319 319 320 320 321 321 322 323 324 325 329 330 330 330 329 328 321 324 326 326 327 328 325 321 324 326 331 330 330 331
328 330 330 330 332 333 335 335 331 329 325 323 321 320 320 320 320 320 321 322 323 325 325 329 329 330 330 329 329 328 327 328 329 328 328 330 324 319 321 329 328 330 329
328 329 330 330 330 331 333 334 334 334 330 327 323 322 321 320 320 320 321 322 323 325 326 329 331 331 331 331 330 329 328 327 327 328 327 328 325 322 327 327 327 329 329
327 328 328 329 329 330 330 332 333 334 334 330 325 324 322 321 321 321 322 323 324 326 329 330 333 333 332 332 331 330 329 329 329 329 327 327 329 325 327 328 329 330 330
327 328 328 328 329 330 329 330 331 332 334 334 331 327 324 322 322 322 323 324 327 329 328 332 334 333 333 332 332 331 331 330 329 328 328 327 329 328 327 327 327 327 328
327 327 327 328 328 329 329 330 330 332 333 334 334 333 328 323 322 322 328 330 332 330 331 333 334 333 332 332 332 330 331 329 329 328 327 327 328 329 328 328 327 325 326
327 327 327 327 328 329 329 330 331 332 333 334 335 335 333 329 330 335 333 335 333 332 332 333 331 331 331 331 329 329 329 329 328 328 327 326 327 328 329 328 325 325 327
327 328 329 328 328 328 329 329 331 332 334 335 335 336 336 336 338 336 336 334 333 333 332 332 332 332 330 328 327 327 328 329 328 328 327 326 327 327 328 328 326 326 327
328 328 329 329 329 329 328 328 331 331 333 336 338 339 338 338 340 337 336 333 334 333 333 333 332 330 329 327 326 326 327 327 328 327 328 327 326 326 327 328 325 327 327
327 328 328 328 328 329 327 328 330 331 334 338 340 340 340 341 339 337 333 333 334 334 332 330 331 329 327 327 326 326 327 327 327 326 327 326 326 327 327 327 325 326 325
326 327 328 327 327 328 328 329 332 335 337 340 341 342 342 339 337 333 333 334 334 332 331 331 329 327 326 326 325 326 326 326 326 327 327 327 327 327 326 326 326 325 324
325 325 326 326 326 327 328 330 334 335 339 341 341 341 339 336 334 334 334 334 333 332 331 328 325 325 324 324 325 325 325 324 324 324 326 326 326 326 326 327 326 325 325
325 325 325 326 327 328 329 334 338 339 341 341 340 338 335 334 334 334 334 333 332 332 325 324 323 322 322 323 323 324 324 324 324 324 325 324 324 326 326 326 324 325 326
327 326 327 327 328 332 336 339 341 341 342 340 339 336 335 334 334 334 334 332 329 325 323 322 322 323 323 324 323 323 323 323 323 324 324 326 324 326 325 326 326 326 326

GFSSE_850_thetae_024.txt.gz
Theta_e
331 325 319 321 321 319 318 316 317 318 318 318 318 317 316 315 314 313 313 312 311 311 311 311 310 310 309 309 309 309 310 314 320 323 321 329 342 343 344 343 342 340 337
327 326 320 321 321 321 319 318 318 318 319 319 319 318 318 317 316 316 315 315 315 313 310 309 309 309 309 309 308 308 308 308 308 310 315 317 334 342 342 341 341 339 338
329 327 323 321 323 323 320 319 320 319 319 319 319 319 319 318 316 316 316 317 317 316 314 312 310 310 310 310 311 311 311 310 309 308 307 310 317 338 341 341 341 341 337
328 327 326 323 324 325 320 320 321 320 320 320 320 319 319 319 318 318 317 317 318 319 319 318 317 316 315 313 312 312 313 314 314 311 309 307 309 329 340 340 340 340 340
328 327 326 326 326 326 321 320 321 320 320 320 320 320 320 320 320 319 319 318 318 319 321 321 321 322 321 317 319 322 321 321 318 316 313 308 307 323 339 339 340 340 341
329 328 327 326 326 326 323 320 321 321 320 320 320 320 320 320 321 321 321 320 319 319 320 322 323 324 324 324 326 327 328 329 327 321 318 314 307 313 335 337 338 338 340
330 330 329 328 327 327 326 320 320 321 321 320 320 320 320 321 321 322 322 321 320 319 319 320 322 325 327 330 330 329 329 326 329 329 325 317 309 308 324 331 329 335 335
331 330 330 328 328 326 327 323 320 321 321 320 320 320 321 321 321 322 322 321 321 320 319 319 321 322 323 324 327 325 326 328 327 327 327 321 316 314 320 321 323 331 333
332 332 331 330 328 326 325 324 321 320 321 320 320 320 320 321 321 322 322 322 321 321 320 320 322 323 324 324 323 322 322 325 328 329 323 326 322 322 327 324 328 330 331
332 331 331 332 332 329 327 324 321 320 320 320 320 320 320 321 321 322 322 322 322 322 321 321 321 323 326 325 321 318 318 318 322 326 331 323 326 328 326 327 328 327 327
332 331 332 332 331 331 328 325 322 320 319 320 319 319 319 320 321 321 322 322 322 322 322 323 323 324 326 327 326 326 321 317 317 320 327 329 323 327 330 326 329 329 327
332 332 332 333 333 333 331 327 325 322 320 320 320 319 319 319 320 321 321 321 321 322 323 324 325 324 326 328 327 327 322 318 317 318 320 323 326 323 330 330 330 331 331
330 331 331 331 331 333 334 333 329 325 323 320 320 320 319 319 319 320 320 321 321 321 323 324 326 324 327 328 328 328 322 321 323 324 324 321 321 324 323 330 330 329 330
327 328 329 329 329 331 333 334 334 331 326 324 321 320 320 319 319 319 320 320 321 322 323 325 327 326 326 329 329 328 327 326 328 328 328 329 328 327 321 323 329 329 329
327 327 326 326 327 329 331 333 334 334 333 328 324 322 320 320 319 319 319 320 321 322 323 326 327 328 329 330 330 330 329 328 327 328 327 328 328 328 320 321 321 327 328
326 327 326 326 326 328 329 330 330 332 334 332 328 325 321 320 319 319 319 320 321 322 325 327 329 330 331 331 331 331 330 329 328 328 328 328 327 328 322 324 321 325 325
327 326 325 326 325 326 327 328 329 331 332 333 332 326 327 324 320 320 320 320 321 322 327 329 331 332 332 332 330 330 331 330 330 329 328 328 327 329 325 326 326 327 329
326 325 325 326 326 326 326 327 328 329 331 332 333 333 330 327 321 320 321 321 322 323 329 331 332 333 332 330 330 331 332 330 329 330 329 328 327 327 328 326 326 326 326
325 325 325 325 326 328 327 327 328 329 329 331 333 334 334 331 325 322 321 322 323 327 333 331 333 333 331 331 330 329 328 328 329 329 329 328 327 326 327 328 327 326 325
324 324 325 326 328 328 328 327 328 329 330 331 332 334 335 335 333 328 323 323 327 334 332 333 332 331 332 331 329 327 326 326 327 328 329 328 327 326 326 328 328 325 325
323 325 327 328 327 327 328 328 329 329 330 330 332 334 336 336 335 330 331 330 334 333 333 333 332 333 331 329 328 326 325 325 325 327 328 328 327 326 327 328 328 326 327
322 323 324 325 327 328 328 328 329 329 329 331 335 337 337 338 336 336 335 335 334 333 334 333 332 331 330 328 327 326 326 325 325 326 327 327 327 326 326 327 327 326 326
321 324 324 325 327 328 328 328 329 330 331 333 336 338 339 339 337 339 337 334 335 334 334 332 332 331 327 326 326 326 326 325 325 326 326 326 327 326 327 327 327 326 326
321 322 324 324 325 327 327 328 329 329 329 331 334 337 340 340 340 337 335 333 333 334 333 332 331 326 325 325 325 325 325 325 324 324 326 327 327 327 326 326 326 326 325
321 323 323 324 324 325 327 328 330 332 335 336 336 340 341 341 337 335 334 334 334 332 331 330 324 323 322 322 323 323 324 325 324 324 324 322 325 326 326 326 326 326 325
322 324 326 326 325 325 327 329 332 335 337 339 340 341 341 336 334 333 334 334 333 332 328 323 322 321 323 323 323 322 323 324 323 323 324 325 324 326 326 326 326 325 325

GFSSE_850_thetae_027.txt.gz
Theta_e
329 327 320 321 322 320 318 317 317 317 317 317 316 316 315 315 314 314 314 313 312 311 311 311 311 310 310 310 310 310 311 314 319 325 325 332 341 343 344 343 342 340 338
328 329 320 320 322 321 319 318 318 318 318 318 318 317 317 316 316 317 317 316 316 315 313 310 310 309 309 309 308 308 308 308 309 313 319 320 330 341 342 343 341 341 339
327 327 323 321 323 322 318 319 320 319 319 319 318 318 318 318 317 317 317 317 317 317 316 314 311 309 309 310 310 310 310 309 308 308 308 312 318 335 341 341 341 339 339
328 327 327 323 322 323 319 319 320 320 319 319 319 319 319 318 318 318 318 318 318 318 318 318 317 316 315 313 312 312 312 313 313 310 309 308 309 324 338 340 340 341 338
328 328 327 324 324 325 322 320 320 320 320 319 319 319 319 319 319 319 319 318 318 318 318 319 320 321 321 318 318 321 320 319 315 315 314 310 307 312 330 339 340 340 340
328 327 327 325 325 325 324 322 320 320 320 319 319 319 319 320 320 320 319 319 318 318 318 319 321 323 323 324 324 327 327 329 327 320 318 316 310 307 316 334 339 339 340
329 328 328 326 325 325 324 324 321 320 320 319 319 319 320 320 320 321 321 321 320 319 319 319 320 322 324 325 327 329 329 328 329 330 326 321 314 308 310 320 335 337 338
330 330 329 327 325 325 325 323 321 320 320 319 319 319 320 320 321 321 321 321 321 320 319 319 320 321 322 323 325 327 325 327 329 333 328 327 317 312 309 319 325 328 334
331 331 330 329 326 324 323 323 322 320 319 319 319 319 320 320 321 321 322 322 322 322 321 319 320 322 323 324 323 323 322 322 331 334 328 324 324 319 317 323 320 324 331
332 332 332 330 327 325 324 323 323 321 319 319 319 319 319 320 321 321 322 322 322 322 322 321 320 321 323 325 324 322 320 318 321 333 332 328 325 323 324 325 327 329 330
333 333 333 332 330 329 328 327 323 322 320 319 318 318 319 319 320 321 321 322 322 322 322 322 322 322 323 326 326 326 326 325 321 329 331 331 325 325 329 326 326 328 327
330 331 332 332 332 332 331 329 327 323 322 320 319 318 318 318 319 320 321 321 322 322 322 323 324 324 324 325 327 327 325 322 320 324 327 319 330 324 326 330 325 325 327
328 329 328 330 333 334 333 332 332 327 323 322 319 318 318 318 318 319 320 321 321 321 322 323 325 326 326 326 327 327 327 323 321 322 323 318 320 325 324 326 330 327 331
328 327 327 327 328 328 332 332 333 333 329 326 323 319 318 318 318 318 319 320 321 321 321 323 326 328 328 327 328 328 328 327 326 327 328 327 327 324 323 323 324 329 328
327 327 327 327 326 326 326 327 329 331 332 332 327 323 320 319 319 318 318 319 320 320 321 322 325 327 329 329 329 329 329 329 328 327 328 328 328 328 328 324 322 323 329
327 327 327 326 326 325 325 325 326 329 330 333 333 331 324 320 319 318 318 318 319 320 320 322 324 327 329 331 331 330 330 330 329 328 328 328 328 328 327 323 319 322 324
326 326 326 325 324 324 325 325 326 327 328 329 332 334 332 326 321 319 318 318 319 320 320 321 328 330 332 331 332 331 329 331 330 329 329 329 328 328 328 324 323 323 322
325 325 324 324 324 325 325 324 325 326 327 328 329 332 333 333 325 320 319 319 319 320 321 322 328 331 332 333 332 330 330 331 331 330 329 330 329 328 328 328 325 326 326
324 324 324 324 324 324 324 325 326 326 326 327 329 331 332 334 333 326 321 320 320 320 321 322 330 332 332 332 331 331 329 328 328 328 329 329 329 328 327 328 327 326 326
321 322 323 323 323 325 326 327 327 327 326 327 329 331 332 332 334 332 328 324 321 321 322 324 332 333 331 331 330 328 328 328 326 327 328 328 328 328 326 326 329 328 325
321 323 323 323 322 325 326 327 327 327 327 327 329 330 332 334 335 335 333 327 323 322 324 331 333 332 331 330 330 329 327 326 325 325 326 327 329 328 327 326 328 330 327
320 321 322 321 322 324 325 325 327 327 328 328 330 331 334 337 337 337 335 328 324 324 330 333 333 332 332 331 330 328 329 329 325 325 326 327 328 327 327 326 327 328 327
320 321 321 321 321 322 325 326 327 328 329 330 332 333 336 337 338 336 332 328 329 332 333 333 332 332 331 330 327 328 328 327 327 325 326 327 327 327 327 326 327 327 326
319 320 320 320 320 322 324 326 327 328 329 330 332 334 336 339 339 337 335 336 335 334 333 333 331 332 330 328 325 325 325 325 327 327 327 327 327 327 326 326 326 327 327
316 317 318 320 322 322 323 324 327 329 331 333 334 335 338 340 339 337 337 335 334 334 332 331 332 330 325 325 323 323 324 325 324 323 327 326 326 327 327 326 327 326 325
320 320 321 323 324 325 324 324 326 329 332 334 336 338 340 339 339 337 336 335 333 333 333 331 327 323 322 323 323 323 326 325 326 324 324 322 323 326 326 326 326 326 325

GFSSE_850_thetae_030.txt.gz
Theta_e
337 329 324 323 323 319 319 319 319 318 317 316 315 315 315 315 314 314 314 314 313 313 312 311 311 311 311 310 310 310 310 312 316 322 327 335 341 343 344 343 342 344 338
328 328 324 321 323 320 318 318 319 319 318 317 316 315 315 315 314 315 316 315 315 314 313 312 311 310 309 309 309 309 308 308 309 312 319 322 331 341 344 343 342 346 338
328 327 325 321 322 322 318 318 319 319 319 318 318 317 317 316 316 316 316 316 316 316 316 315 314 312 311 310 310 309 309 309 308 308 308 320 334 333 341 341 341 342 339
327 328 326 322 322 323 318 319 319 319 319 319 319 318 318 318 318 318 318 317 317 317 317 317 317 316 316 315 313 312 312 311 311 310 319 321 322 324 333 340 339 340 339
328 327 327 324 323 323 321 318 319 319 319 319 319 319 319 318 319 319 319 318 318 318 318 318 319 320 320 318 316 317 318 316 314 315 328 325 321 321 319 334 340 340 340
328 328 327 325 323 323 323 319 319 319 318 319 319 319 319 318 319 320 319 319 319 318 318 319 320 321 322 322 323 326 327 328 327 335 331 329 317 322 312 322 337 340 341
328 328 328 326 323 322 323 320 318 319 319 319 319 319 319 319 319 320 320 320 320 319 318 318 319 321 322 324 327 329 329 328 331 337 336 334 328 316 308 312 329 339 339
329 328 329 327 324 322 322 321 319 318 319 319 319 319 319 319 320 320 321 321 321 321 320 319 319 320 321 323 324 326 326 326 334 336 337 337 334 316 309 309 322 333 336
334 330 329 328 326 323 322 321 321 319 318 318 318 318 318 319 320 320 321 321 321 321 321 320 319 321 322 324 324 324 323 323 329 336 336 336 332 322 314 310 320 325 328
340 334 331 330 328 325 324 323 322 320 319 318 318 318 318 318 319 320 320 321 321 322 322 321 321 321 322 324 325 324 322 321 323 333 335 336 334 325 319 318 322 322 327
341 336 333 332 331 329 326 325 322 321 320 318 317 317 317 318 318 319 320 321 321 321 322 322 322 322 322 323 325 326 326 332 333 333 333 334 332 324 324 322 324 327 327
339 340 338 332 333 332 329 329 327 322 320 319 319 317 317 317 319 319 320 321 321 322 322 323 323 324 324 334 334 327 330 334 333 332 332 331 328 329 325 326 325 325 327
332 332 339 334 330 333 334 333 331 330 325 322 320 319 318 317 322 319 327 321 321 321 323 324 322 324 336 335 333 333 332 332 331 331 331 327 318 324 327 324 327 327 324
330 331 332 331 327 327 332 332 332 333 333 330 326 321 319 318 322 326 331 333 322 323 323 338 338 337 337 336 334 333 333 333 331 332 333 329 326 321 320 326 324 327 328
330 328 328 327 326 327 326 326 326 327 331 334 335 333 325 328 326 327 330 331 333 331 329 323 329 333 338 337 336 335 334 334 334 333 332 333 328 328 326 324 323 323 325
329 328 328 327 326 326 325 324 324 325 326 334 339 337 333 332 332 332 328 331 332 325 320 327 334 336 337 336 336 335 335 334 334 334 332 333 331 327 327 327 328 321 322
330 330 327 326 326 326 325 324 324 324 325 328 336 339 338 336 333 329 332 333 331 323 319 320 334 337 335 335 336 336 336 335 334 334 334 333 333 331 328 327 327 318 321
329 329 326 326 326 324 325 324 324 323 326 326 335 340 338 338 337 334 333 333 331 326 319 327 333 334 335 335 335 334 334 334 334 334 333 333 332 332 332 328 327 323 322
328 326 322 324 324 324 324 323 323 324 325 334 336 340 340 338 338 337 336 333 331 330 328 328 331 333 335 336 336 333 331 333 332 333 333 333 333 333 333 333 329 325 326
326 321 320 321 322 323 323 322 325 329 327 330 337 339 340 338 339 338 337 334 332 331 331 330 332 334 332 336 337 334 333 332 331 332 332 332 332 332 333 332 333 328 326
325 320 319 320 322 322 321 322 330 331 332 331 336 338 339 339 337 336 338 336 333 331 329 325 323 328 335 335 335 332 331 331 332 331 332 330 331 332 333 332 330 332 329
323 324 319 319 320 320 320 324 336 336 339 339 338 339 338 336 335 337 338 338 334 333 325 325 325 335 335 334 334 332 329 330 331 331 332 331 331 332 333 332 331 330 332
323 323 323 320 320 320 319 320 324 327 329 337 341 339 335 336 338 338 338 339 335 332 331 326 332 336 335 333 331 331 329 328 330 330 330 331 330 329 330 331 327 329 329
324 325 325 319 319 319 319 319 324 333 341 341 341 334 337 339 340 338 337 336 332 329 334 336 334 336 334 333 330 328 329 328 327 329 330 330 329 329 329 329 326 327 327
322 323 322 317 318 319 319 322 325 333 343 341 341 339 339 340 339 339 335 331 329 334 337 333 336 333 332 331 329 329 329 328 329 328 329 330 328 329 329 327 327 326 325
322 323 326 318 318 320 322 323 327 341 344 344 344 337 339 340 340 337 337 335 336 338 334 333 334 332 331 330 328 328 328 329 327 328 329 329 329 328 328 327 328 327 328

GFSSE_850_thetae_033.txt.gz
Theta_e
342 327 327 325 326 321 321 320 319 318 318 318 317 317 317 318 318 317 317 315 314 313 313 312 312 311 311 311 311 310 310 310 311 313 322 332 340 343 344 343 342 346 341
340 327 327 324 326 321 321 320 319 319 318 318 318 317 317 316 316 315 315 314 314 313 313 312 311 310 310 309 309 309 309 309 309 310 314 322 326 338 344 343 342 346 340
342 327 326 323 325 323 321 320 320 319 318 318 317 317 317 316 316 317 316 316 316 315 315 314 314 313 312 311 310 309 309 309 309 308 308 314 339 333 339 343 342 343 341
334 327 326 322 324 324 320 320 320 319 319 318 317 317 317 317 317 317 317 317 317 317 317 317 317 318 318 317 315 313 312 312 311 310 319 320 322 327 328 339 339 341 340
328 327 327 324 323 324 321 320 320 319 319 318 318 318 318 318 318 317 317 317 318 318 318 318 318 319 320 320 319 319 319 317 314 317 329 326 324 326 320 327 340 338 339
328 328 328 325 322 322 322 319 319 319 319 318 318 318 318 319 318 318 318 318 318 318 318 318 319 319 320 321 322 324 326 326 328 338 334 332 320 323 322 315 335 339 340
341 329 328 326 322 321 322 320 318 319 319 318 318 318 318 318 318 319 319 319 319 319 319 318 319 319 320 321 322 324 325 327 327 340 337 336 332 326 317 310 317 337 340
341 338 333 328 324 321 321 321 319 318 318 318 318 318 318 318 319 319 319 320 320 320 319 319 319 320 320 321 322 323 324 324 331 337 337 337 337 333 315 308 309 326 338
339 342 342 330 327 323 321 321 321 319 318 318 318 318 318 318 319 319 320 320 320 320 320 320 319 320 321 322 323 323 324 323 324 337 338 336 336 335 321 312 309 317 331
340 342 343 340 329 326 323 321 321 320 319 318 318 318 318 318 318 319 319 320 320 321 321 321 320 320 321 321 323 323 324 323 322 333 336 336 335 335 328 318 311 318 322
339 341 343 346 335 330 327 325 321 320 318 318 317 317 317 317 318 318 319 320 320 321 322 322 322 321 322 321 321 323 324 329 334 335 334 335 335 335 330 322 319 321 320
339 340 343 346 347 344 339 338 334 326 320 319 319 317 317 317 317 318 319 319 320 320 322 322 322 322 322 328 337 335 329 335 336 334 333 334 334 333 329 325 324 324 326
337 338 339 343 343 345 345 340 338 335 331 324 321 319 318 317 318 325 329 324 320 320 321 322 322 323 322 332 335 336 335 334 333 332 332 332 331 323 322 327 326 327 325
333 333 334 337 342 331 343 343 340 342 342 336 332 327 320 321 322 327 332 334 327 322 322 322 327 327 323 338 335 335 335 335 333 333 334 333 332 326 318 326 326 326 327
333 333 334 335 341 329 327 342 339 341 342 342 341 338 336 334 331 331 332 333 336 334 332 334 333 332 338 339 338 337 336 335 335 334 334 334 332 330 326 320 321 325 325
333 333 332 334 336 333 327 326 327 328 338 342 343 342 339 338 336 335 333 334 335 336 335 333 337 338 340 339 339 337 336 336 336 335 334 334 333 331 328 327 326 326 324
332 332 333 333 335 334 328 326 325 333 339 341 343 343 342 340 338 337 337 337 334 335 334 335 336 338 339 340 337 338 337 336 334 335 334 334 331 330 332 328 328 327 325
330 332 333 333 333 332 329 326 325 329 338 341 343 343 343 342 340 338 339 338 336 334 336 335 335 335 339 337 336 337 337 335 336 335 334 333 334 331 333 333 330 328 320
332 333 334 333 334 332 334 329 325 324 328 337 340 342 343 343 343 341 341 338 337 335 334 334 333 336 336 337 336 337 337 335 336 335 333 333 332 333 333 332 333 329 323
330 330 331 331 327 322 327 327 325 332 331 337 341 342 342 344 344 344 342 340 337 336 334 334 332 336 334 336 337 337 335 336 336 332 331 330 333 334 331 332 333 331 325
326 327 328 329 322 320 326 333 333 333 336 342 344 342 343 345 345 342 342 341 339 337 335 333 334 333 335 335 337 336 336 334 332 333 330 331 333 332 330 332 332 333 328
326 326 326 324 324 321 328 323 328 334 339 343 345 343 344 345 345 343 342 342 339 338 336 334 333 335 334 336 338 336 333 330 332 333 332 331 333 330 331 331 334 333 332
326 326 327 327 325 325 323 332 331 330 342 344 345 345 345 345 343 342 340 342 341 339 337 334 335 331 338 336 336 335 330 331 331 332 332 331 331 329 330 332 333 333 330
325 325 326 326 328 328 327 330 333 339 341 343 345 346 345 343 341 343 342 341 341 340 338 336 334 336 337 337 336 334 333 331 330 330 331 331 330 329 328 329 331 331 331
324 324 325 326 329 328 327 322 334 338 342 345 345 346 341 342 344 344 342 341 340 340 336 336 338 338 337 336 333 332 330 330 330 329 329 332 330 329 329 329 330 331 330
324 324 325 327 328 328 329 324 328 341 342 347 345 345 347 344 344 344 343 340 340 336 338 340 339 336 335 335 332 331 330 329 330 330 329 330 330 329 329 329 329 329 328

GFSSE_850_thetae_036.txt.gz
Theta_e
338 327 327 327 323 322 320 319 320 320 320 319 318 319 319 319 319 318 317 316 316 314 313 312 312 311 311 311 311 310 310 310 310 311 314 323 334 342 343 343 343 346 339
328 327 327 327 324 323 321 319 320 321 320 319 318 318 318 318 318 317 316 316 315 315 314 314 313 312 311 310 310 309 309 309 309 309 311 314 322 328 342 343 342 345 343
327 327 327 327 327 323 322 320 319 320 320 320 319 318 317 317 317 317 317 316 316 316 316 316 316 316 316 315 314 311 310 309 309 309 309 314 336 334 330 342 342 342 344
327 327 327 326 327 323 322 321 320 319 319 319 319 318 318 317 317 317 317 317 317 317 317 317 317 318 318 318 317 316 315 312 311 312 327 322 332 329 323 335 340 340 340
327 327 327 326 326 326 321 321 320 319 319 319 318 318 318 318 318 318 318 317 318 318 317 318 318 319 319 320 320 322 323 322 317 331 330 328 324 328 325 320 339 338 339
327 327 327 326 325 325 324 321 321 320 319 319 318 318 318 318 318 318 318 318 318 318 318 318 318 319 319 320 321 323 325 325 335 339 339 334 332 325 324 321 323 338 338
328 328 327 327 325 324 325 322 320 320 320 319 319 319 318 318 318 319 319 319 319 319 319 319 319 319 319 320 321 321 322 323 326 338 337 337 336 333 330 319 314 330 337
328 328 328 327 326 323 323 323 321 320 320 319 319 319 319 318 318 319 319 320 320 320 320 319 319 319 319 320 320 321 322 323 323 333 337 337 337 336 335 321 309 316 331
342 333 329 328 327 324 322 322 322 320 319 319 319 318 318 318 318 319 319 320 320 320 320 320 320 320 320 320 320 321 321 322 323 325 338 338 337 336 335 329 313 309 324
341 343 335 331 329 327 323 321 321 321 319 318 318 318 318 318 318 318 319 319 320 321 321 321 321 321 321 321 321 321 321 321 322 329 334 335 337 336 335 334 323 309 315
340 341 343 338 332 329 326 323 321 321 320 319 318 318 318 318 318 318 318 319 320 320 321 321 321 321 321 321 322 325 327 325 328 335 335 335 335 335 335 334 328 314 318
340 342 344 343 342 335 330 329 325 321 321 321 321 319 318 317 317 317 318 318 319 320 320 321 322 322 322 322 322 331 334 332 336 337 335 334 334 333 333 332 329 320 321
339 341 343 343 342 339 339 338 337 336 333 329 323 321 319 317 316 316 317 318 318 319 320 321 322 322 322 323 328 335 336 336 335 333 333 333 332 331 329 320 327 325 322
338 338 341 343 343 342 342 342 337 337 334 332 330 329 323 319 317 316 317 318 320 320 319 320 321 322 323 325 335 339 337 335 334 334 333 334 333 333 332 328 320 326 326
334 334 336 336 336 337 339 346 343 337 331 328 330 330 331 331 327 319 318 323 326 328 326 321 321 322 325 330 334 338 334 335 335 334 334 334 334 334 332 330 323 323 326
334 334 334 334 338 335 335 333 342 342 341 336 335 334 332 336 337 334 329 329 335 336 335 332 325 323 330 336 341 338 336 337 336 336 335 335 334 334 332 331 327 323 321
332 333 333 333 334 336 335 334 331 334 338 340 344 343 338 338 341 341 336 333 333 339 337 336 334 338 340 341 337 340 338 337 336 336 335 335 334 334 330 330 330 327 327
331 331 331 332 333 334 333 332 330 328 329 334 338 344 345 342 342 342 340 337 336 334 339 336 337 335 336 339 340 337 338 338 337 336 334 332 334 334 334 330 329 331 328
332 331 332 333 333 335 336 334 331 329 328 330 336 341 343 344 343 344 342 339 340 337 335 337 336 335 338 338 340 336 338 337 335 334 336 335 334 333 330 330 331 330 329
332 333 332 332 333 332 334 334 335 332 328 326 326 332 343 343 343 344 343 341 340 339 337 337 337 335 334 338 335 337 337 336 335 334 335 332 331 330 330 332 333 332 332
331 331 330 329 328 330 329 330 336 329 324 327 330 330 336 343 343 344 344 343 342 340 338 336 336 334 335 336 337 337 337 334 335 333 334 332 331 330 331 331 331 330 332
329 328 327 327 326 327 326 323 328 332 331 332 336 338 343 343 344 344 344 343 343 340 339 337 336 334 335 335 335 334 335 336 334 334 333 333 330 329 330 332 329 330 329
328 327 327 327 326 326 325 326 330 330 329 336 342 342 345 344 344 344 345 344 342 341 340 337 336 335 334 335 336 336 336 333 331 332 332 332 331 329 330 329 329 331 327
328 328 327 328 328 326 326 327 333 334 326 325 344 345 345 344 344 344 344 342 343 343 340 338 337 336 334 335 337 335 334 333 333 332 332 332 331 328 328 328 330 330 330
325 324 324 324 324 325 329 331 330 335 337 337 339 346 346 346 345 345 343 341 343 343 339 340 337 335 332 337 336 335 333 330 329 329 330 330 329 327 327 328 327 329 329
325 327 327 326 327 327 329 329 333 330 334 341 345 346 347 346 344 342 342 341 341 340 339 339 337 334 337 337 335 333 333 331 330 330 330 330 328 326 328 328 328 329 330

GFSSE_850_thetae_042.txt.gz
Theta_e
326 325 324 323 324 323 322 320 318 318 318 319 319 319 318 318 318 317 316 316 315 314 313 313 312 312 311 311 310 310 310 310 310 310 311 318 329 337 340 339 341 342 334
327 325 324 323 323 324 323 321 320 319 319 319 318 318 318 317 317 317 316 316 316 315 315 315 314 314 313 312 311 310 309 309 309 309 310 314 321 326 330 339 340 343 341
327 325 324 323 323 323 323 322 321 320 320 319 319 319 319 318 318 318 318 318 317 317 317 317 317 318 318 317 316 314 312 310 309 309 317 317 331 327 325 330 337 340 340
327 326 324 324 323 323 323 323 322 321 320 320 320 320 320 319 319 319 319 319 318 318 318 318 318 319 319 319 320 320 317 311 318 320 322 322 326 326 325 321 330 337 340
327 326 325 324 324 323 323 323 322 322 321 321 320 320 320 320 320 320 319 319 319 319 319 319 319 319 320 320 321 321 321 317 324 325 326 328 328 327 323 320 319 332 337
327 327 324 324 324 324 323 323 323 322 322 322 321 321 320 320 320 319 319 319 319 319 319 319 319 319 320 320 321 321 323 324 327 330 333 333 334 334 329 325 319 316 330
327 327 325 324 324 324 324 323 322 322 322 322 321 321 321 321 320 320 320 320 320 320 320 320 320 320 320 320 320 321 321 325 333 336 336 337 335 335 336 334 331 317 312
327 327 326 325 323 324 324 324 323 322 321 321 321 321 320 320 320 320 320 320 320 320 320 320 320 320 320 320 320 320 321 322 325 334 337 336 337 337 337 336 334 330 312
327 326 326 325 326 325 323 323 323 323 322 321 320 320 320 320 319 319 320 320 320 320 320 320 321 320 320 320 320 320 320 321 321 329 335 335 337 337 337 336 335 334 326
327 326 325 325 326 326 326 325 324 323 322 322 321 320 320 320 319 319 319 319 319 320 320 321 321 321 320 320 320 321 321 321 321 321 323 332 337 335 336 336 334 331 331
327 326 325 325 326 326 326 326 326 324 323 322 321 321 320 320 320 319 319 319 318 319 319 320 320 321 321 321 321 321 322 329 328 324 331 333 333 334 335 334 331 328 328
327 326 326 325 326 327 325 325 326 325 325 325 324 323 321 320 319 318 318 318 318 318 318 319 320 320 321 321 321 321 322 332 329 330 334 334 334 335 335 333 331 331 323
331 328 327 326 326 327 326 327 327 326 326 326 326 324 323 321 319 319 318 318 317 317 317 318 319 320 320 321 321 321 322 333 334 333 333 332 333 334 334 332 333 330 323
342 336 331 331 329 328 328 328 328 328 328 328 327 325 323 322 321 319 318 318 317 317 317 317 318 318 319 320 321 321 323 328 335 335 334 333 332 334 333 333 333 331 328
341 342 340 341 340 338 334 334 335 333 331 330 330 329 329 329 328 323 322 320 318 317 316 316 317 317 318 319 320 321 322 326 336 336 335 334 333 334 333 333 334 330 328
336 337 342 343 341 337 339 342 341 337 332 330 329 329 332 331 330 332 330 328 324 321 318 317 317 318 320 320 319 320 322 326 335 335 335 335 334 335 334 333 333 330 329
336 337 339 339 337 335 342 343 336 335 335 334 332 329 330 330 329 332 336 337 336 335 332 327 322 323 327 328 330 322 322 329 336 334 335 335 335 335 335 335 334 332 329
335 337 336 336 338 340 341 339 335 334 332 331 332 331 329 331 331 332 336 338 339 339 339 336 332 330 332 334 333 330 324 335 337 337 337 336 336 336 335 334 332 332 329
335 335 336 337 335 334 332 332 331 330 331 330 332 331 330 330 332 332 335 336 340 342 341 339 336 334 334 337 336 333 332 340 340 338 339 337 335 336 333 333 332 332 330
329 333 333 332 332 332 332 330 331 332 332 332 331 331 330 329 329 332 338 337 341 344 343 340 338 336 334 337 336 334 337 340 338 340 336 335 335 333 332 332 330 331 330
328 328 327 331 331 332 331 331 332 335 336 335 334 332 331 332 332 336 336 339 344 345 344 342 340 338 336 337 337 337 337 338 338 338 335 334 333 333 331 333 331 330 329
324 326 328 328 332 331 331 330 331 332 333 332 332 330 328 329 333 336 337 332 337 345 345 343 341 339 338 337 337 337 337 337 337 336 335 334 332 333 332 332 330 331 330
323 324 326 328 330 333 332 332 333 333 333 328 326 325 325 325 327 331 332 336 338 342 345 344 342 341 338 338 337 336 336 335 334 334 332 333 331 333 332 332 330 329 329
323 323 325 328 331 334 334 333 333 329 326 326 326 325 324 323 328 337 334 337 341 344 345 344 343 341 340 338 338 336 335 334 333 332 331 331 329 332 331 331 329 327 329
323 323 323 326 331 334 334 330 327 327 327 325 325 325 325 324 327 336 340 340 343 345 345 344 343 342 340 338 336 335 335 335 334 333 332 330 330 330 330 329 327 326 326
323 324 324 325 329 329 328 328 327 326 324 324 325 326 326 327 328 327 343 343 344 345 344 344 343 340 339 338 337 336 335 334 333 333 331 329 329 329 328 325 326 326 327

GFSSE_850_thetae_045.txt.gz
Theta_e
324 324 322 322 320 319 318 317 317 317 317 316 317 318 320 320 319 318 317 317 316 315 314 314 313 312 312 311 311 310 310 310 310 310 312 321 331 332 336 336 340 340 331
326 324 323 323 321 321 320 319 319 318 318 317 317 317 317 316 316 316 316 315 315 315 315 315 315 315 315 314 312 311 310 309 309 309 310 315 322 327 328 334 337 341 340
326 325 324 323 322 322 322 321 321 320 319 318 318 318 318 318 318 318 318 317 318 318 318 318 318 318 318 317 315 313 311 309 309 308 312 319 322 322 323 326 332 338 338
326 326 325 324 323 323 323 322 322 321 320 320 319 319 319 319 319 319 319 319 319 319 319 319 319 319 319 319 318 317 314 310 313 317 319 323 324 324 320 320 321 334 338
326 326 326 324 323 323 323 323 322 321 321 321 320 320 320 320 320 320 320 319 319 319 320 319 320 319 320 320 320 320 315 319 323 324 325 328 330 330 326 321 317 319 333
326 326 326 324 323 323 323 323 323 322 322 321 321 320 320 320 320 320 320 319 319 319 319 319 319 319 320 320 321 322 319 323 325 328 330 332 333 335 332 332 331 316 317
326 325 325 324 323 323 323 323 323 323 322 322 321 321 321 320 320 320 319 319 320 320 319 319 319 319 320 320 320 321 323 326 329 332 333 334 334 335 335 334 333 327 314
326 325 325 325 323 322 323 323 323 323 323 322 322 321 321 321 321 320 320 320 320 320 320 320 320 320 320 320 320 320 321 322 328 334 335 335 335 336 336 335 334 332 324
326 325 325 325 323 322 322 323 323 323 323 322 322 321 321 321 320 320 320 320 320 320 320 320 320 320 320 320 320 320 320 321 322 324 331 334 334 336 337 336 335 334 331
326 325 325 324 323 322 322 322 322 322 323 322 321 321 320 320 320 319 319 319 319 319 320 320 320 320 320 320 320 320 321 321 321 321 324 325 329 335 335 336 335 331 329
325 326 326 324 323 322 322 321 322 322 322 322 322 321 321 320 320 319 319 319 318 318 319 319 320 320 320 320 320 320 321 323 328 327 329 329 331 334 334 335 334 331 329
325 326 326 326 324 322 321 321 321 322 323 323 323 322 322 322 320 319 319 319 318 318 318 318 319 319 320 320 321 320 321 322 329 329 329 333 333 334 334 335 332 332 330
327 326 325 326 325 324 323 322 322 322 324 325 325 324 324 323 321 320 319 319 318 318 318 318 318 318 319 320 320 321 321 321 327 331 333 334 333 333 333 334 332 332 331
326 326 325 324 324 324 323 323 323 323 324 325 326 326 325 325 322 321 320 319 318 318 317 317 317 317 317 318 319 320 321 321 322 334 333 334 333 332 333 333 332 332 331
329 327 326 325 325 323 323 323 322 323 324 323 325 325 324 324 323 323 321 320 319 318 317 317 317 316 316 316 317 318 320 321 322 330 335 334 334 333 333 333 333 332 330
339 333 328 328 327 326 324 325 326 326 327 326 324 324 324 324 324 325 327 328 326 324 322 319 318 316 316 316 317 318 318 320 322 327 336 334 334 333 334 334 333 333 331
338 340 340 340 335 335 336 335 336 337 341 337 335 331 330 330 332 333 334 332 333 334 334 330 328 323 321 319 320 323 324 323 320 324 335 334 334 334 334 334 334 334 332
337 337 338 338 340 337 336 337 335 334 338 336 334 334 332 332 332 332 333 333 335 338 338 338 337 334 332 329 328 330 332 332 323 330 333 336 336 335 335 335 335 334 331
336 336 337 341 342 341 339 339 337 335 338 335 333 332 330 330 331 331 330 333 337 339 340 341 341 339 337 335 333 334 336 333 327 338 337 337 336 334 330 333 333 333 332
328 335 335 336 338 338 337 337 337 335 333 333 332 331 331 332 332 331 332 334 334 341 340 342 343 342 339 337 334 336 336 334 337 340 337 337 336 334 332 332 332 331 331
325 327 329 334 336 335 336 336 337 332 332 331 331 331 332 334 332 331 332 335 333 337 337 342 344 343 341 338 335 336 337 336 336 338 336 337 336 333 332 333 331 331 330
323 326 327 327 330 333 338 336 334 334 332 331 332 332 333 333 331 328 328 332 333 334 338 338 341 344 341 338 336 337 337 337 336 337 336 336 334 333 333 332 332 331 330
319 320 323 325 324 324 326 330 334 337 335 336 334 333 333 332 328 326 328 334 335 334 333 337 341 344 342 340 337 337 337 336 335 334 334 334 333 333 331 332 332 332 331
317 319 321 321 322 324 326 328 329 334 335 331 331 332 331 326 327 328 333 334 337 334 336 340 342 344 341 340 338 337 337 336 334 333 331 331 331 331 328 330 331 331 329
316 318 320 322 322 324 324 328 330 333 333 332 333 329 326 326 325 324 326 333 335 337 337 342 345 344 342 341 339 337 337 337 336 334 334 333 331 329 329 330 330 329 328
315 316 318 321 323 323 324 325 330 334 333 334 329 326 326 326 325 325 325 326 328 340 341 344 345 342 342 340 338 336 336 335 335 335 334 332 331 328 328 328 327 326 325

GFSSE_850_thetae_048.txt.gz
Theta_e
324 321 320 319 320 320 320 319 318 320 322 323 325 329 325 316 317 317 316 316 316 315 314 314 313 312 312 311 311 311 310 310 310 310 312 318 325 330 333 335 338 338 330
325 322 322 320 319 318 317 317 317 316 316 317 318 317 317 317 317 317 317 316 316 316 316 315 315 314 314 313 312 311 310 309 309 310 311 316 322 322 325 332 334 339 337
325 322 322 322 319 318 318 318 318 318 318 318 318 318 318 318 318 318 318 318 318 318 318 318 317 317 317 316 315 313 311 309 309 309 312 318 322 322 322 324 329 337 336
326 324 323 322 321 320 320 321 321 321 320 320 320 319 319 319 319 319 319 319 319 319 319 319 319 319 319 319 318 316 312 311 313 317 319 323 324 323 320 318 319 332 338
326 324 323 323 323 322 322 322 322 322 321 321 321 320 320 320 320 320 320 319 319 319 319 319 319 319 320 320 320 319 317 319 322 323 325 329 332 328 325 325 320 317 333
326 324 323 323 323 323 323 323 323 322 322 321 321 320 320 320 320 320 320 320 320 319 319 319 320 320 320 320 321 321 319 322 325 327 331 332 333 333 332 329 329 318 315
326 324 323 323 323 324 323 323 323 323 322 322 321 321 320 320 320 320 320 320 320 320 319 319 319 319 319 320 320 321 321 323 326 329 331 333 333 335 335 334 334 331 321
325 324 322 322 322 323 323 323 323 323 322 322 322 321 321 320 320 320 320 320 319 320 320 320 319 319 319 320 320 320 321 322 324 329 331 333 333 335 335 335 335 333 330
325 324 322 322 322 322 323 323 323 323 323 322 322 322 321 321 320 320 320 320 320 319 319 320 320 320 319 320 320 320 320 320 321 322 328 331 334 335 335 336 335 334 330
324 324 322 321 322 322 323 322 322 322 322 322 322 322 321 321 321 320 320 319 319 319 319 319 320 320 320 320 320 320 320 320 321 321 321 324 333 334 333 333 335 333 330
324 324 322 321 322 323 323 322 322 322 322 322 321 321 321 320 320 320 319 319 319 318 319 319 319 319 320 320 320 320 320 321 322 326 327 326 326 334 333 333 334 333 332
324 324 323 322 322 322 322 322 322 321 321 321 321 320 320 320 320 319 319 318 318 318 318 318 318 318 319 319 320 320 320 320 321 329 329 328 332 333 333 334 334 332 332
327 324 323 323 322 323 322 322 321 321 320 320 320 320 320 319 319 319 319 319 318 319 318 318 318 318 317 318 319 319 320 320 321 326 331 331 333 333 333 333 333 332 332
326 326 323 323 322 323 323 322 322 321 321 320 320 320 321 320 319 319 320 319 319 319 318 318 317 317 317 316 317 317 319 320 321 321 331 333 333 333 332 332 333 332 332
328 326 325 322 323 323 323 323 323 322 323 322 321 322 321 322 321 320 320 319 319 319 318 318 317 317 316 316 315 316 316 318 319 321 322 334 334 334 333 332 332 332 332
334 326 325 323 323 324 325 324 325 324 324 324 323 324 323 323 323 322 321 321 320 323 322 321 320 318 317 316 316 316 316 316 317 319 322 331 335 334 334 333 333 333 333
339 333 333 326 324 324 324 324 323 324 324 325 325 326 330 330 330 327 324 327 328 332 331 330 330 327 325 323 323 319 319 320 322 322 320 325 335 333 334 333 334 334 334
334 337 339 331 326 325 324 324 324 326 330 331 338 335 336 334 332 332 331 332 334 334 334 336 337 336 335 335 333 329 327 329 330 331 325 324 333 335 335 334 328 332 334
331 335 338 341 341 338 333 329 334 332 335 334 335 336 337 336 332 333 333 334 336 336 336 338 339 340 340 339 337 334 332 334 335 333 326 334 336 335 335 329 329 327 332
321 327 336 336 337 341 342 338 339 339 336 336 336 335 335 335 335 334 333 333 334 335 338 339 340 341 341 341 338 336 334 335 336 333 333 339 337 335 334 333 332 331 332
318 321 325 335 335 336 341 342 341 337 337 337 336 335 336 335 334 336 333 332 331 332 336 340 343 342 342 342 338 337 335 335 336 335 338 337 335 335 336 333 332 332 331
317 319 322 325 332 333 334 339 341 339 338 337 336 335 337 335 337 335 333 330 331 333 338 340 341 342 342 341 339 337 336 335 336 336 335 336 336 336 334 333 333 332 331
315 317 319 323 326 330 328 332 335 334 334 337 336 336 333 332 336 336 329 328 330 331 335 337 339 341 340 341 340 337 336 336 336 335 335 336 336 335 333 332 332 332 331
314 315 316 318 321 325 325 327 326 325 328 333 333 332 332 333 334 335 327 328 330 331 335 336 339 339 341 342 340 338 337 336 335 333 332 332 331 331 331 329 329 331 331
314 315 315 315 318 320 321 323 324 323 324 325 327 329 331 334 333 332 328 328 326 326 332 335 336 339 342 343 340 340 338 336 335 336 335 334 332 332 329 328 329 329 329
313 314 315 315 316 319 322 322 322 323 324 327 329 330 332 334 331 326 327 326 325 325 328 329 338 342 343 341 340 338 337 336 336 336 334 335 335 332 328 328 327 327 327